Coraopolis, PA

4:36 AM EST on February 22, 2017 (GMT -0500)
Pittsburgh International

Weather History for KPIT - August, 2013

Change the Weather History Date:

Tuesday, August 27, 2013

  Actual Average Record
Temperature  
Mean Temperature 76 °F 70 °F  
Max Temperature 81 °F 80 °F 99 °F (1948)
Min Temperature 71 °F 60 °F 46 °F (1968)
Degree Days  
Heating Degree Days 0 0  
Month to date heating degree days 10 0  
Since 1 June heating degree days 27 42  
Since 1 July heating degree days 11 4  
Cooling Degree Days 11 6  
Month to date cooling degree days 145 186  
Year to date cooling degree days 670 629  
Since 1 June cooling degree days 566 577  
Growing Degree Days 26 (Base 50)    
Moisture  
Dew Point 67 °F    
Average Humidity 75    
Maximum Humidity 87    
Minimum Humidity 62    
Precipitation  
Precipitation 0.04 in 0.11 in 1.98 in (1940)
Month to date precipitation 1.09 3.04  
Year to date precipitation 25.07 26.27  
Snow  
Snow 0.00 in 0.00 in 0.00 in (2002)
Month to date snowfall 0.0 0.0  
Since 1 July snowfall 0.0 0.0  
Snow Depth 0.00 in    
Sea Level Pressure  
Sea Level Pressure 30.00 in    
Wind  
Wind Speed 6 mph (WSW)    
Max Wind Speed 20 mph    
Max Gust Speed 24 mph    
Visibility 8 miles    
Events Rain    
T = Trace of Precipitation, MM = Missing Value Source: NWS Daily Summary

Daily Weather History Graph

Daily Weather History Graph

Search for Another Location

Airport or City:

Trip Planner

Search our weather history database for the weather conditions in past years. The results will help you decide how hot, cold, wet, or windy it might be!

Date:

Astronomy

Aug. 27, 2013 Rise Set
Actual Time 6:43 AM EDT 8:00 PM EDT
Civil Twilight 6:15 AM EDT 8:28 PM EDT
Nautical Twilight 5:41 AM EDT 9:02 PM EDT
Astronomical Twilight 5:05 AM EDT 9:37 PM EDT
Moon 11:50 PM EDT (8/27) 1:41 PM EDT (8/27)
Length of Visible Light 14h 13m
Length of Day
13h 16m
Waning Gibbous, 57% of the Moon is Illuminated
Aug 27
Waning Gibbous
Aug 28
Last Quarter
Sep 5
New
Sep 12
First Quarter
Sep 19
Full

Hourly Weather History & Observations

Time (EDT) Temp. Heat Index Dew Point Humidity Pressure Visibility Wind Dir Wind Speed Gust Speed Precip Events Conditions
12:51 AM 72.0 °F - 66.9 °F 84% 30.04 in 7.0 mi WSW 6.9 mph - 0.01 in   Overcast
1:51 AM 73.0 °F - 66.0 °F 79% 30.02 in 8.0 mi West 9.2 mph - N/A   Overcast
2:51 AM 72.0 °F - 66.9 °F 84% 30.02 in 7.0 mi WSW 4.6 mph - N/A   Overcast
3:51 AM 72.0 °F - 66.9 °F 84% 30.01 in 7.0 mi WSW 4.6 mph - N/A   Overcast
4:51 AM 72.0 °F - 66.0 °F 81% 30.01 in 7.0 mi West 5.8 mph - N/A   Overcast
5:51 AM 71.1 °F - 66.9 °F 87% 30.01 in 7.0 mi West 4.6 mph - 0.00 in   Mostly Cloudy
6:51 AM 71.1 °F - 66.9 °F 87% 30.02 in 6.0 mi Calm Calm - N/A   Overcast
7:51 AM 72.0 °F - 66.9 °F 84% 30.02 in 7.0 mi West 4.6 mph - N/A   Overcast
8:51 AM 73.9 °F - 66.9 °F 79% 30.02 in 7.0 mi WSW 4.6 mph - N/A   Overcast
9:51 AM 75.9 °F - 66.9 °F 74% 30.01 in 7.0 mi West 9.2 mph - N/A   Overcast
10:51 AM 78.1 °F - 68.0 °F 71% 30.03 in 7.0 mi West 5.8 mph - N/A   Overcast
11:34 AM 75.2 °F - 68.0 °F 78% 30.05 in 8.0 mi West 6.9 mph - 0.00 in Rain Light Rain
11:51 AM 75.0 °F - 69.1 °F 82% 30.05 in 6.0 mi West 9.2 mph - 0.02 in Rain Light Rain
12:51 PM 77.0 °F - 68.0 °F 74% 30.04 in 9.0 mi WNW 16.1 mph 24.2 mph 0.01 in   Overcast
1:06 PM 77.0 °F - 69.8 °F 78% 30.02 in 10.0 mi NW 11.5 mph - N/A   Overcast
1:51 PM 75.9 °F - 66.9 °F 74% 29.98 in 10.0 mi WSW 6.9 mph - 0.00 in Rain Light Rain
2:51 PM 77.0 °F - 66.9 °F 71% 29.98 in 10.0 mi SSW 8.1 mph - 0.00 in   Overcast
3:51 PM 80.1 °F 82.3 °F 66.9 °F 64% 29.97 in 10.0 mi WSW 6.9 mph - N/A   Overcast
4:51 PM 81.0 °F 83.3 °F 66.9 °F 62% 29.97 in 10.0 mi WSW 10.4 mph - N/A   Mostly Cloudy
5:51 PM 78.1 °F - 68.0 °F 71% 29.97 in 10.0 mi WSW 10.4 mph - N/A   Overcast
6:51 PM 75.9 °F - 68.0 °F 76% 29.98 in 10.0 mi WSW 6.9 mph - N/A   Overcast
7:51 PM 75.0 °F - 68.0 °F 79% 29.98 in 9.0 mi WSW 3.5 mph - N/A   Mostly Cloudy
8:51 PM 73.9 °F - 68.0 °F 82% 29.98 in 9.0 mi Calm Calm - N/A   Overcast
9:51 PM 73.0 °F - 68.0 °F 84% 29.98 in 8.0 mi South 4.6 mph - N/A   Overcast
10:51 PM 73.0 °F - 69.1 °F 87% 29.98 in 7.0 mi SSE 3.5 mph - N/A   Overcast
11:51 PM 73.0 °F - 69.1 °F 87% 29.97 in 6.0 mi South 3.5 mph - N/A   Overcast